Regional Weather Roundup
Issued by NWS

Home | Current Version | Previous Version | Text Only | Print | Product List | Glossary On
Versions: 1 2 3 4 5 6 7 8 9 10 11 12 13 14 15 16 17 18 19 20 21 22 23 24 25 26 27 28 29 30 31 32 33 34 35 36 37 38 39 40 41 42 43 44 45 46 47 48 49 50
000
ASUS44 KLIX 242211
RWRLA
LOUISIANA WEATHER ROUNDUP
NATIONAL WEATHER SERVICE NEW ORLEANS LA
500 PM CDT SUN JUL 24 2016

NOTE: "FAIR" INDICATES FEW OR NO CLOUDS BELOW 12,000 FEET WITH NO
      SIGNIFICANT WEATHER AND/OR OBSTRUCTIONS TO VISIBILITY.
      SKY/WX - SKY CONDITION AND SIGNIFICANT WEATHER.
      TMP - AIR TEMPERATURE.    DP   - DEWPOINT TEMPERATURE.
      RH  - RELATIVE HUMIDITY.  PRES - PRESSURE.
      HX  - HEAT INDEX.         WCI  - WIND CHILL INDEX.

*  THESE STATIONS ARE NOT NWS OR FAA STATIONS AND ARE NOT UNDER
   NWS QUALITY CONTROL.

LAZ040-048-061>063-065-066-069-242300-
SOUTHEAST LOUISIANA

CITY           SKY/WX    TMP DP  RH WIND       PRES   REMARKS
N.O. AUDUBON     N/A     89  78  70 MISG        N/A  HX 102
N.O. INTL ARPT RAIN      83  76  79 N8        29.95S
N.O. LAKEFRONT CLOUDY    88  73  61 CALM      29.96R HX  95
N.O. DOWNTOWN* NOT AVBL
RESERVE*       FAIR      79  76  91 N3        29.96S
SLIDELL        CLOUDY    86  75  69 MISG      29.95R THUNDER HX  95
BATON ROUGE    PTSUNNY   88  75  65 E10       29.94F HX  97
BOOTHVILLE     CLOUDY    84  75  74 CALM      29.96S
BELLE CHASSE   CLOUDY    86  75  69 CALM      29.95R HX  95
BOGALUSA*      CLOUDY    81  71  72 S3G21     30.00R THUNDER
GALLIANO*      MOCLDY    82  77  84 CALM      29.95F
NEW ROADS*     FAIR      88  74  62 NE5       29.94S HX  96
GONZALES*      LGT RAIN  78  77  95 CALM      29.95S
HAMMOND*       CLOUDY    77  73  88 N5        29.95F FOG
HOUMA*         MOSUNNY   82  77  83 CALM      29.96S
PORT FOURCHON* CLEAR     82  77  83 CALM      29.95F

$$

LAZ041-044-053-054-242300-
SOUTHWEST LOUISIANA

CITY           SKY/WX    TMP DP  RH WIND       PRES   REMARKS
LAKE CHARLES   CLOUDY    89  75  63 E9        29.93R HX  99
LAFAYETTE      CLOUDY    84  75  74 CALM      29.95S
PATTERSON      CLOUDY    80  75  84 CALM      29.96S
SALT POINT       N/A     81  75  82 VRB3      29.93S
NEW IBERIA     CLOUDY    87  76  69 N7        29.94F HX  97
CHENAULT AIRPK PTSUNNY   88  75  66 E8        29.94S HX  97

$$

LAZ027-028-242300-
CENTRAL LOUISIANA

CITY           SKY/WX    TMP DP  RH WIND       PRES   REMARKS
FORT POLK      CLOUDY    80  75  84 SE9       29.95R
ALEXANDRIA INT LGT RAIN  80  78  94 SE5       29.95R
ALEXANDRIA     CLOUDY    84  75  74 CALM      29.97R

$$

LAZ001-002-242300-
NORTHWEST LOUISIANA

CITY           SKY/WX    TMP DP  RH WIND       PRES   REMARKS
SHREVEPORT     CLOUDY    96  75  50 N5        29.91R HX 108
BARKSDALE AFB  CLOUDY    82  72  69 E15       29.94R THUNDER
DTN SHREVEPORT CLOUDY    85  73  67 E15G28    29.94R THUNDER

$$

LAZ014-016-242300-
NORTHEAST LOUISIANA

CITY           SKY/WX    TMP DP  RH WIND       PRES   REMARKS
MONROE         TSTM      78  72  81 E3        29.99S
TALLULAH       CLOUDY    86  71  60 NE8       29.95F

$$




USA.gov is the U.S. government's official web portal to all federal, state and local government web resources and services.